Location: Bergen
(60.3910°N, 5.3250°E)
Time: 07:46:19
(UTC+02:00)

ISS - Pass Details

Date: 29 March 2019
Orbit: 408 x 410 km, 51.6° (Epoch: 25 April)

Event Time Altitude Azimuth Distance (km) Brightness Sun altitude
Rises 20:03:34 0° 239° (WSW) 2,336 0.7 -6.7°
Reaches altitude 10° 20:06:05 10° 219° (SW) 1,475 -0.7 -6.9°
Maximum altitude 20:08:25 18° 175° (S) 1,086 -1.9 -7.2°
Drops below altitude 10° 20:10:45 10° 130° (SE) 1,475 -1.6 -7.5°
Enters shadow 20:10:55 - 128° (SE) 1,525 -1.5 -7.5°
